User: anonymous
Location: Melbourne
(37.8170°S, 144.9670°E)
Time: 19:09:14
(UTC+10:00)
Language:

Cosmos 1656 Rocket - Orbit

View from above orbital plane
View from above orbital plane
View from above satellite
View from above satellite

Ground track
Ground track

The orbit data is extracted from the following two-line orbital elements,

1 15772U 85042D   14244.79709183 -.00000108  00000-0 -27567-4 0  4560
2 15772 071.1103 326.4038 0035573 191.5052 307.4816 14.21029832516620
Epoch (UTC): 01 September 2014 19:07:48
Eccentricity: 0.0035573
inclination: 71.1103°
perigee height: 796 km
apogee height: 847 km
right ascension of ascending node: 326.4038°
argument of perigee: 191.5052°
revolutions per day: 14.21029832
mean anomaly at epoch: 307.4816°
orbit number at epoch: 51662

The dashed part of the orbit path shows where the satellite is in the earth's shadow,  

DLR